CZ-4C R/B, 64754

Orbit data source: Space-Track

CZ-4C R/B, 64754 is space debris in LEO originally from a launch on Thu, 03 Jul 2025 UTC launched from the Xichang Space Center, China (XSC). Debris objects in space refer to the collection of defunct objects orbiting the Earth. Examples of debris include non-operational satellites, rocket bodies, and fragments generated from explosions, collisions, or faulty payload assembly.

Not visible in the next 10 days
Identifier
64754, 2025-145B
Orbit
LEO
Country
Flag of CNCN / PRC
Related business
Manufacturer
SAST
Mission
Spacecraft
Bus & Motor
CZ-4 STAGE 3, Unknown motor
Mass
~1,000 kg wet, ~1,000 kg dry
Launch date (UTC)
2025-07-03 (1 year ago)
Launch vehicle
Unknown
Launch site
Xichang Space Center, China (XSC)
Object type
Payload
Rocket body
Debris
Shape & HBR
Cyl, 2.7 m
Radar Cross Section
14.536 m², Large (>1 m²)

Expand to show TLE details & history
Last TLE update: 6 hours ago

TLE from 6 hours ago
0 CZ-4C R/B
1 64754U 25145B   26178.50964458  .00000852  00000-0  60149-4 0  9997
2 64754  10.9837 152.5006 0120877  76.0806 285.2839 14.56731971 52320
Epoch: 2026-06-27T12:13Z
TLE epoch observation values (Epoch: 2026-06-27T12:13:53.291Z)
Latitude
Longitude
53.4058°
Altitude
679.285 km
Speed
7.532 km/s
True Right ascension
10h 10m 00s
True Declination
0° 00' 00"
Sunlit
Object was in daylight at epoch
Visualization orbit readout
Latitude
Unknown
Longitude
Unknown
Altitude
Unknown
Speed
Unknown
Apparent Right ascension
Unknown
Apparent Declination
Unknown
Sunlit
N/A
Visualization observer readout
Local Sidereal Time
05:57:10
Azimuth
Unknown
Elevation
Unknown
Doppler factor
Unknown
Orbital elements
Apogee altitude
795.31 km
Perigee altitude
623.961 km
Semi-major axis
7,087.772 km
Eccentricity
0.01209
Inclination
10.9837°
RAAN
152.5006°
Arg. of periapsis
76.0806°
True anomaly
283.94252°
Mean anomaly
285.2839°
Eccentric anomaly
284.61373°
Mean motion
3.63729 °/min
Orbital period
98.97 mins
BSTAR
0.000060149
Loading maneuver chart data...
Computing Atmospheric mass density...
Loading historical data...
Loading historical data...
Loading historical data...
Loading historical data...
Loading historical data...
Loading historical data...
Loading historical data...
Other satellites on launch #145 in the year 2025 (2025-07-03 UTC)

Documentation

Showing up to 5 results
|